When you browse on this site, cookies collect data to enhance your experience and personalize the content and advertising you see.
Visit our Privacy Policy to learn more. By continuing to use the site, you agree to this use of cookies and data.

Hourly Weather Yerevan

Today, 12 August, Wednesday

Time Temperature Precipitation Wind Pressure Humidity
00:00 +24°C° 0 mm 3 mps 688 mmHg 58%
01:00 +24°C° 0 mm 3 mps 688 mmHg 59%
02:00 +22°C° 0 mm 3 mps 687 mmHg 60%
03:00 +22°C° 0 mm 3 mps 687 mmHg 61%
04:00 +22°C° 0 mm 3 mps 688 mmHg 61%
05:00 +22°C° 0 mm 3 mps 688 mmHg 61%
06:00 +23°C° 0 mm 2 mps 688 mmHg 61%
07:00 +25°C° 0 mm 2 mps 688 mmHg 54%
08:00 +27°C° 0 mm 2 mps 688 mmHg 48%
09:00 +29°C° 0 mm 2 mps 689 mmHg 42%
10:00 +30°C° 0 mm 2 mps 689 mmHg 39%
11:00 +31°C° 0 mm 2 mps 689 mmHg 35%
12:00 +34°C° 0 mm 2 mps 689 mmHg 32%
13:00 +35°C° 0 mm 2 mps 689 mmHg 30%
14:00 +35°C° 0 mm 3 mps 688 mmHg 28%
15:00 +36°C° 0 mm 3 mps 688 mmHg 26%
16:00 +35°C° 0 mm 4 mps 688 mmHg 28%
17:00 +35°C° 0 mm 4 mps 688 mmHg 30%
18:00 +34°C° 0 mm 4 mps 688 mmHg 32%
19:00 +32°C° 0 mm 4 mps 688 mmHg 37%
20:00 +30°C° 0 mm 4 mps 688 mmHg 41%
21:00 +28°C° 0 mm 4 mps 688 mmHg 46%
22:00 +27°C° 0 mm 3 mps 688 mmHg 48%
23:00 +26°C° 0 mm 3 mps 688 mmHg 50%

Tomorrow, 13 August, Thursday

Time Temperature Precipitation Wind Pressure Humidity
00:00 +26°C° 0 mm 2 mps 688 mmHg 52%
01:00 +25°C° 0 mm 2 mps 688 mmHg 53%
02:00 +24°C° 0 mm 2 mps 688 mmHg 55%
03:00 +24°C° 0 mm 2 mps 688 mmHg 57%
04:00 +24°C° 0 mm 2 mps 688 mmHg 57%
05:00 +24°C° 0 mm 2 mps 688 mmHg 57%
06:00 +24°C° 0 mm 2 mps 688 mmHg 56%
07:00 +26°C° 0 mm 2 mps 688 mmHg 51%
08:00 +27°C° 0 mm 2 mps 688 mmHg 46%
09:00 +29°C° 0 mm 2 mps 688 mmHg 41%
10:00 +30°C° 0.1 mm 2 mps 688 mmHg 38%
11:00 +32°C° 0.1 mm 2 mps 688 mmHg 35%
12:00 +34°C° 0.1 mm 2 mps 688 mmHg 32%
13:00 +34°C° 0.1 mm 2 mps 687 mmHg 31%
14:00 +35°C° 0.1 mm 2 mps 687 mmHg 30%
15:00 +35°C° 0.1 mm 2 mps 686 mmHg 29%
16:00 +34°C° 0.1 mm 3 mps 686 mmHg 33%
17:00 +33°C° 0.1 mm 4 mps 686 mmHg 36%
18:00 +30°C° 0.1 mm 4 mps 686 mmHg 40%
19:00 +29°C° 0.3 mm 4 mps 686 mmHg 45%
20:00 +27°C° 0.3 mm 3 mps 687 mmHg 51%
21:00 +25°C° 0.3 mm 3 mps 687 mmHg 56%
22:00 +25°C° 0.1 mm 3 mps 687 mmHg 56%
23:00 +25°C° 0.1 mm 3 mps 687 mmHg 57%

Day after tomorrow, 14 August, Friday

Time Temperature Precipitation Wind Pressure Humidity
00:00 +25°C° 0.1 mm 3 mps 688 mmHg 57%
01:00 +24°C° 0 mm 3 mps 687 mmHg 58%
02:00 +24°C° 0 mm 3 mps 687 mmHg 59%
03:00 +22°C° 0 mm 4 mps 687 mmHg 60%
04:00 +22°C° 0 mm 3 mps 687 mmHg 61%
05:00 +22°C° 0 mm 3 mps 687 mmHg 61%
06:00 +23°C° 0 mm 2 mps 687 mmHg 61%
07:00 +24°C° 0 mm 2 mps 687 mmHg 55%
08:00 +26°C° 0 mm 2 mps 687 mmHg 50%
09:00 +28°C° 0 mm 2 mps 687 mmHg 44%
10:00 +29°C° 0.1 mm 2 mps 687 mmHg 40%
11:00 +31°C° 0.1 mm 2 mps 687 mmHg 37%
12:00 +32°C° 0.1 mm 2 mps 687 mmHg 34%
13:00 +34°C° 0.2 mm 2 mps 686 mmHg 32%
14:00 +34°C° 0.2 mm 3 mps 686 mmHg 31%
15:00 +35°C° 0.2 mm 3 mps 686 mmHg 29%
16:00 +34°C° 0.2 mm 4 mps 685 mmHg 32%
17:00 +33°C° 0.2 mm 5 mps 685 mmHg 35%
18:00 +32°C° 0.2 mm 5 mps 685 mmHg 38%
19:00 +29°C° 1.1 mm 4 mps 686 mmHg 45%
20:00 +26°C° 1.1 mm 3 mps 686 mmHg 53%
21:00 +24°C° 1.1 mm 3 mps 686 mmHg 60%
22:00 +24°C° 0.3 mm 2 mps 686 mmHg 61%
23:00 +23°C° 0.3 mm 2 mps 686 mmHg 62%

15 August, Saturday

Time Temperature Precipitation Wind Pressure Humidity
00:00 +23°C° 0.3 mm 2 mps 686 mmHg 63%
01:00 +23°C° 0.1 mm 2 mps 686 mmHg 63%
02:00 +21°C° 0.1 mm 3 mps 686 mmHg 63%
03:00 +21°C° 0.1 mm 3 mps 686 mmHg 63%
04:00 +21°C° 0 mm 3 mps 686 mmHg 63%
05:00 +21°C° 0 mm 3 mps 686 mmHg 63%
06:00 +21°C° 0 mm 3 mps 686 mmHg 63%
07:00 +22°C° 0 mm 3 mps 686 mmHg 57%
08:00 +25°C° 0 mm 3 mps 686 mmHg 51%
09:00 +27°C° 0 mm 3 mps 687 mmHg 45%
10:00 +28°C° 0 mm 3 mps 686 mmHg 42%
11:00 +29°C° 0 mm 2 mps 686 mmHg 39%
12:00 +31°C° 0 mm 2 mps 686 mmHg 35%
13:00 +31°C° 0 mm 2 mps 686 mmHg 34%
14:00 +32°C° 0 mm 2 mps 686 mmHg 33%
15:00 +32°C° 0 mm 2 mps 686 mmHg 31%
16:00 +31°C° 0 mm 3 mps 686 mmHg 33%
17:00 +32°C° 0 mm 5 mps 686 mmHg 36%
18:00 +30°C° 0 mm 6 mps 686 mmHg 38%
19:00 +28°C° 0 mm 5 mps 686 mmHg 40%
20:00 +27°C° 0 mm 4 mps 687 mmHg 42%
21:00 +26°C° 0 mm 3 mps 687 mmHg 44%
22:00 +25°C° 0 mm 3 mps 687 mmHg 46%
23:00 +25°C° 0 mm 3 mps 687 mmHg 47%

16 August, Sunday

Time Temperature Precipitation Wind Pressure Humidity
00:00 +24°C° 0 mm 3 mps 687 mmHg 48%
01:00 +22°C° 0 mm 3 mps 687 mmHg 50%
02:00 +21°C° 0 mm 3 mps 687 mmHg 51%
03:00 +21°C° 0 mm 2 mps 687 mmHg 53%
04:00 +21°C° 0 mm 2 mps 687 mmHg 54%
05:00 +20°C° 0 mm 2 mps 687 mmHg 55%
06:00 +20°C° 0 mm 2 mps 687 mmHg 56%
07:00 +23°C° 0 mm 2 mps 687 mmHg 51%
08:00 +25°C° 0 mm 2 mps 687 mmHg 46%
09:00 +26°C° 0 mm 2 mps 688 mmHg 41%
10:00 +28°C° 0 mm 2 mps 687 mmHg 39%
11:00 +29°C° 0 mm 2 mps 687 mmHg 36%
12:00 +30°C° 0 mm 2 mps 687 mmHg 34%
13:00 +31°C° 0 mm 2 mps 687 mmHg 33%
14:00 +33°C° 0 mm 3 mps 687 mmHg 31%
15:00 +34°C° 0 mm 3 mps 686 mmHg 29%
16:00 +33°C° 0.2 mm 3 mps 686 mmHg 33%
17:00 +31°C° 0.2 mm 3 mps 686 mmHg 36%
18:00 +30°C° 0.2 mm 3 mps 686 mmHg 39%
19:00 +28°C° 1 mm 3 mps 686 mmHg 48%
20:00 +25°C° 1 mm 3 mps 686 mmHg 56%
21:00 +23°C° 1 mm 2 mps 686 mmHg 65%
22:00 +23°C° 1.5 mm 2 mps 686 mmHg 69%
23:00 +21°C° 1.5 mm 2 mps 686 mmHg 73%

17 August, Monday

Time Temperature Precipitation Wind Pressure Humidity
00:00 +21°C° 1.5 mm 1 mps 686 mmHg 77%
01:00 +21°C° 1.1 mm 1 mps 686 mmHg 78%
02:00 +21°C° 1.1 mm 1 mps 686 mmHg 78%
03:00 +21°C° 1.1 mm 1 mps 686 mmHg 78%
04:00 +21°C° 0.4 mm 1 mps 686 mmHg 78%
05:00 +19°C° 0.4 mm 0 mps 686 mmHg 77%
06:00 +19°C° 0.4 mm 0 mps 687 mmHg 76%
07:00 +20°C° 0 mm 0 mps 687 mmHg 71%
08:00 +23°C° 0 mm 1 mps 687 mmHg 66%
09:00 +24°C° 0 mm 1 mps 687 mmHg 61%
10:00 +25°C° 0 mm 1 mps 687 mmHg 56%
11:00 +27°C° 0 mm 1 mps 687 mmHg 51%
12:00 +28°C° 0 mm 1 mps 687 mmHg 46%
13:00 +28°C° 0.1 mm 1 mps 687 mmHg 45%
14:00 +29°C° 0.1 mm 2 mps 687 mmHg 43%
15:00 +29°C° 0.1 mm 3 mps 687 mmHg 41%
16:00 +28°C° 0.4 mm 4 mps 687 mmHg 44%
17:00 +27°C° 0.4 mm 5 mps 687 mmHg 48%
18:00 +26°C° 0.4 mm 6 mps 687 mmHg 51%
19:00 +25°C° 1 mm 5 mps 687 mmHg 56%
20:00 +24°C° 1 mm 3 mps 687 mmHg 61%
21:00 +21°C° 1 mm 2 mps 688 mmHg 66%
22:00 +21°C° 0.9 mm 2 mps 688 mmHg 68%
23:00 +20°C° 0.9 mm 2 mps 688 mmHg 70%
Show more